Home   Weather   Sterling Heights   Past weeks

Flag for USA Past Weather in Sterling Heights, Michigan, USA — Yesterday and Last 2 Weeks

Now
48 °F

Clear.


Feels Like: 45 °F
Forecast: 51 / 72 °F
Wind: 6 mph from North

Location: Selfridge Air National Guard Base

Current Time: Sep 25, 2016 at 3:18:41 AM

Latest Report: Sep 25, 2016 at 2:58 AM


Visibility: 10 mi

Pressure: 30.22 "Hg

Humidity: 90%

Dew Point: 45 °F

Location of Sterling HeightsLocation

Past Weather in Sterling Heights — Graph

°F

Sterling Heights Temperature Yesterday

Maximum temperature yesterday: 67 °F (at 3:58 PM)
Minimum temperature yesterday: 52 °F (at 11:58 PM)
Average temperature yesterday: 60 °F

High & Low Weather Summary for the Past Weeks

 TemperatureHumidityPressure
High87 °F (Sep 22, 2:58 PM)100% (Sep 10, 8:04 AM)30.31 "Hg (Sep 10, 8:04 AM)
Low50 °F (Sep 15, 6:58 AM)25% (Sep 11, 10:58 AM)29.72 "Hg (Sep 10, 4:58 PM)
Average67 °F79%30.08 "Hg
* Reported Sep 10 1:58 AM — Sep 25 1:58 AM, Sterling Heights, Weather by CustomWeather, © 2016

Note: Actual official high and low records may vary slightly from our data, if they occured in-between our weather recording intervals... More about our weather records

Advertising

Sterling Heights Weather History for the Previous 24 Hours

Scroll right to see more
 ConditionsComfort  
Time TempWeatherWind HumidityBarometerVisibility
1:58 AM
Sun, Sep 25
51 °FClear.2 mph83%30.22 "Hg10 mi
12:58 AM52 °FClear.3 mph80%30.23 "Hg10 mi
11:58 PM
Sat, Sep 24
52 °FClear.6 mph78%30.22 "Hg10 mi
10:58 PM55 °FClear.5 mph71%30.22 "Hg12 mi
9:58 PM54 °FClear.6 mph74%30.21 "Hg12 mi
8:58 PM55 °FClear.6 mph73%30.21 "Hg12 mi
7:58 PM58 °FPassing clouds.10 mph65%30.21 "Hg12 mi
6:58 PM62 °FPassing clouds.8 mph56%30.22 "Hg10 mi
5:58 PM66 °FPassing clouds.6 mph56%30.21 "Hg10 mi
4:58 PM66 °FPassing clouds.7 mph56%30.21 "Hg10 mi
3:58 PM67 °FPassing clouds.8 mph59%30.21 "Hg10 mi
2:58 PM67 °FPassing clouds.5 mph56%30.23 "Hg10 mi
1:58 PM66 °FPassing clouds.7 mph61%30.25 "Hg10 mi
12:58 PM64 °FScattered clouds.7 mph65%30.26 "Hg10 mi
11:58 AM64 °FPartly sunny.12 mph62%30.27 "Hg10 mi
10:58 AM61 °FPartly sunny.12 mph71%30.27 "Hg10 mi
9:58 AM61 °FScattered clouds.10 mph74%30.27 "Hg10 mi
8:58 AM58 °FPassing clouds.8 mph81%30.25 "Hg10 mi
7:58 AM53 °FPassing clouds.10 mph87%30.23 "Hg10 mi
6:58 AM54 °FClear.9 mph85%30.22 "Hg10 mi
5:58 AM55 °FClear.10 mph83%30.20 "Hg10 mi
4:58 AM56 °FClear.12 mph83%30.18 "Hg10 mi
3:58 AM57 °FClear.9 mph80%30.18 "Hg10 mi
Weather by CustomWeather, © 2016

See weather overviewHow to use our weather pages